Location: Azul
(36.7830°S, 59.8500°W)
Time: 23:29:11
(UTC-03:00)

FO-29 - Pass Details

Date: 31 October 2021
Orbit: 799 x 1322 km, 98.5° (Epoch: 28 November)

Event Time Altitude Azimuth Distance (km) Brightness Sun altitude
Rises 23:53:05 0° 183° (S) 4,183 13.7 -37.7°
Reaches altitude 10° 23:56:29 10° 198° (SSW) 3,275 13.0 -37.9°
Maximum altitude 00:01:38 20° 241° (WSW) 2,639 12.0 -38.1°
Enters shadow 00:06:22 12° 280° (W) 3,233 12.2 -38.3°
